Logansport, IN

12:56 AM EDT on September 23, 2017 (GMT -0400)
Logansport Municipal

Weather History for KGGP - November, 2013

Change the Weather History Date:

Monday, November 4, 2013

  Actual Average Record
Temperature  
Mean Temperature 44 °F -  
Max Temperature 53 °F 49 °F 75 °F (2015)
Min Temperature 35 °F 34 °F 35 °F (2013)
Degree Days  
Heating Degree Days 21    
Moisture  
Dew Point 36 °F    
Average Humidity 74    
Maximum Humidity 93    
Minimum Humidity 51    
Precipitation  
Precipitation 0.00 in - - ()
Sea Level Pressure  
Sea Level Pressure 30.29 in    
Wind  
Wind Speed 10 mph (SE)    
Max Wind Speed 17 mph    
Max Gust Speed 22 mph    
Visibility 10 miles    
Events      
Averages and records for this station are not official NWS values.
T = Trace of Precipitation, MM = Missing Value Source: NWS Daily Summary

Daily Weather History Graph

Daily Weather History Graph

Search for Another Location

Airport or City:

Trip Planner

Search our weather history database for the weather conditions in past years. The results will help you decide how hot, cold, wet, or windy it might be!

Date:

Astronomy

Nov. 04, 2013 Rise Set
Actual Time 7:19 AM EST 5:37 PM EST
Civil Twilight 6:50 AM EST 6:06 PM EST
Nautical Twilight 6:18 AM EST 6:39 PM EST
Astronomical Twilight 5:46 AM EST 7:11 PM EST
Moon 8:29 AM EST (11/4) 6:41 PM EST (11/4)
Length of Visible Light 11h 15m
Length of Day
10h 18m
New Moon, 2% of the Moon is Illuminated
Nov 4
New Moon
Nov 10
First Quarter
Nov 17
Full
Nov 25
Last Quarter
Dec 2
New

Hourly Weather History & Observations

Time (EST) Temp. Windchill Dew Point Humidity Pressure Visibility Wind Dir Wind Speed Gust Speed Precip Events Conditions
12:15 AM 37.4 °F 30.8 °F 33.8 °F 87% 30.33 in 10.0 mi ESE 9.2 mph - N/A   Clear
12:35 AM 37.4 °F 30.8 °F 33.8 °F 87% 30.32 in 10.0 mi ESE 9.2 mph - N/A   Clear
12:55 AM 37.4 °F 31.4 °F 33.8 °F 87% 30.32 in 10.0 mi ESE 8.1 mph - N/A   Clear
1:15 AM 37.4 °F 31.4 °F 33.8 °F 87% 30.33 in 10.0 mi ESE 8.1 mph - N/A   Clear
1:35 AM 37.4 °F 31.4 °F 33.8 °F 87% 30.33 in 10.0 mi East 8.1 mph - N/A   Clear
1:55 AM 35.6 °F 29.9 °F 33.8 °F 93% 30.34 in 10.0 mi ESE 6.9 mph - N/A   Clear
2:15 AM 35.6 °F 29.2 °F 33.8 °F 93% 30.33 in 10.0 mi East 8.1 mph - N/A   Clear
2:35 AM 35.6 °F 29.9 °F 33.8 °F 93% 30.34 in 10.0 mi ESE 6.9 mph - N/A   Clear
2:55 AM 35.6 °F 30.7 °F 33.8 °F 93% 30.35 in 10.0 mi ESE 5.8 mph - N/A   Clear
3:15 AM 37.4 °F 31.4 °F 35.6 °F 93% 30.34 in 10.0 mi ESE 8.1 mph - N/A   Clear
3:35 AM 37.4 °F 31.4 °F 35.6 °F 93% 30.34 in 10.0 mi ESE 8.1 mph - N/A   Clear
3:55 AM 37.4 °F 30.8 °F 35.6 °F 93% 30.33 in 10.0 mi ESE 9.2 mph - N/A   Clear
4:15 AM 37.4 °F 29.8 °F 35.6 °F 93% 30.33 in 10.0 mi ESE 11.5 mph - N/A   Clear
4:35 AM 37.4 °F 30.3 °F 35.6 °F 93% 30.33 in 10.0 mi ESE 10.4 mph - N/A   Clear
4:55 AM 37.4 °F 30.8 °F 35.6 °F 93% 30.33 in 10.0 mi ESE 9.2 mph - N/A   Clear
5:15 AM 39.2 °F 33.0 °F 35.6 °F 87% 30.33 in 10.0 mi ESE 9.2 mph - N/A   Clear
5:35 AM 39.2 °F 32.5 °F 35.6 °F 87% 30.33 in 10.0 mi ESE 10.4 mph - N/A   Clear
5:55 AM 37.4 °F 30.3 °F 33.8 °F 87% 30.33 in 10.0 mi ESE 10.4 mph - N/A   Clear
6:15 AM 37.4 °F 29.8 °F 33.8 °F 87% 30.33 in 10.0 mi ESE 11.5 mph - N/A   Clear
6:35 AM 37.4 °F 31.4 °F 33.8 °F 87% 30.33 in 10.0 mi ESE 8.1 mph - N/A   Clear
6:55 AM 37.4 °F 31.4 °F 33.8 °F 87% 30.33 in 10.0 mi ESE 8.1 mph - N/A   Clear
7:15 AM 37.4 °F 30.8 °F 33.8 °F 87% 30.32 in 10.0 mi ESE 9.2 mph - N/A   Clear
7:35 AM 37.4 °F 30.8 °F 33.8 °F 87% 30.32 in 10.0 mi ESE 9.2 mph - N/A   Clear
7:55 AM 39.2 °F 33.6 °F 33.8 °F 81% 30.33 in 10.0 mi ESE 8.1 mph - N/A   Clear
8:15 AM 39.2 °F 33.6 °F 35.6 °F 87% 30.33 in 10.0 mi ESE 8.1 mph - N/A   Clear
8:35 AM 41.0 °F 35.8 °F 35.6 °F 81% 30.34 in 10.0 mi ESE 8.1 mph - N/A   Clear
8:55 AM 41.0 °F 35.2 °F 35.6 °F 81% 30.33 in 10.0 mi ESE 9.2 mph - N/A   Clear
9:15 AM 42.8 °F 37.5 °F 35.6 °F 76% 30.33 in 10.0 mi ESE 9.2 mph - N/A   Clear
9:35 AM 42.8 °F 37.0 °F 35.6 °F 76% 30.32 in 10.0 mi SE 10.4 mph - N/A   Clear
9:55 AM 44.6 °F 39.2 °F 35.6 °F 71% 30.32 in 10.0 mi SE 10.4 mph 17.3 mph N/A   Clear
10:15 AM 44.6 °F 37.8 °F 33.8 °F 66% 30.32 in 10.0 mi SE 15.0 mph - N/A   Clear
10:35 AM 46.4 °F 40.1 °F 35.6 °F 66% 30.32 in 10.0 mi SE 15.0 mph - N/A   Clear
10:55 AM 46.4 °F 40.7 °F 35.6 °F 66% 30.32 in 10.0 mi SSE 12.7 mph 17.3 mph N/A   Clear
11:15 AM 48.2 °F - 35.6 °F 62% 30.32 in 10.0 mi SSE 17.3 mph 21.9 mph N/A   Clear
11:35 AM 48.2 °F - 35.6 °F 62% 30.30 in 10.0 mi SSE 13.8 mph - N/A   Clear
11:55 AM 48.2 °F - 35.6 °F 62% 30.30 in 10.0 mi SSE 16.1 mph - N/A   Clear
12:15 PM 50.0 °F - 35.6 °F 58% 30.29 in 10.0 mi SSE 15.0 mph - N/A   Clear
12:35 PM 50.0 °F - 35.6 °F 58% 30.28 in 10.0 mi SSE 15.0 mph - N/A   Clear
12:55 PM 50.0 °F - 35.6 °F 58% 30.27 in 10.0 mi SSE 12.7 mph - N/A   Clear
1:15 PM 50.0 °F - 35.6 °F 58% 30.26 in 10.0 mi SSE 13.8 mph 17.3 mph N/A   Clear
1:35 PM 51.8 °F - 37.4 °F 58% 30.26 in 10.0 mi SSE 12.7 mph - N/A   Clear
1:55 PM 53.6 °F - 35.6 °F 51% 30.25 in 10.0 mi South 13.8 mph 19.6 mph N/A   Clear
2:15 PM 53.6 °F - 37.4 °F 54% 30.25 in 10.0 mi South 11.5 mph 17.3 mph N/A   Clear
2:35 PM 53.6 °F - 37.4 °F 54% 30.24 in 10.0 mi South 9.2 mph - N/A   Clear
2:55 PM 53.6 °F - 37.4 °F 54% 30.23 in 10.0 mi South 10.4 mph - N/A   Clear
3:15 PM 53.6 °F - 37.4 °F 54% 30.24 in 10.0 mi South 11.5 mph - N/A   Clear
3:35 PM 51.8 °F - 37.4 °F 58% 30.24 in 10.0 mi SSE 11.5 mph - N/A   Clear
3:55 PM 51.8 °F - 37.4 °F 58% 30.24 in 10.0 mi SSE 11.5 mph - N/A   Clear
4:15 PM 51.8 °F - 37.4 °F 58% 30.24 in 10.0 mi SSE 10.4 mph - N/A   Clear
4:35 PM 51.8 °F - 37.4 °F 58% 30.24 in 10.0 mi SSE 12.7 mph 17.3 mph N/A   Clear
4:55 PM 51.8 °F - 37.4 °F 58% 30.24 in 10.0 mi South 12.7 mph 17.3 mph N/A   Clear
5:15 PM 50.0 °F - 37.4 °F 62% 30.24 in 10.0 mi SSE 9.2 mph - N/A   Clear
5:35 PM 50.0 °F - 37.4 °F 62% 30.24 in 10.0 mi SSE 9.2 mph - N/A   Clear
5:55 PM 50.0 °F - 37.4 °F 62% 30.24 in 10.0 mi SSE 10.4 mph - N/A   Clear
6:15 PM 48.2 °F - 39.2 °F 71% 30.24 in 10.0 mi SSE 10.4 mph - N/A   Clear
6:35 PM 50.0 °F - 37.4 °F 62% 30.25 in 10.0 mi SSE 9.2 mph - N/A   Clear
6:55 PM 50.0 °F - 37.4 °F 62% 30.25 in 10.0 mi SSE 6.9 mph - N/A   Clear
7:15 PM 48.2 °F - 39.2 °F 71% 30.26 in 10.0 mi SSE 8.1 mph - N/A   Scattered Clouds
7:35 PM 48.2 °F - 39.2 °F 71% 30.26 in 10.0 mi SSE 9.2 mph - N/A   Overcast
7:55 PM 48.2 °F - 39.2 °F 71% 30.26 in 10.0 mi SSE 9.2 mph - N/A   Overcast
8:15 PM 48.2 °F - 39.2 °F 71% 30.26 in 10.0 mi SSE 8.1 mph - N/A   Mostly Cloudy
8:35 PM 48.2 °F - 39.2 °F 71% 30.27 in 10.0 mi SSE 9.2 mph - N/A   Scattered Clouds
8:55 PM 48.2 °F - 39.2 °F 71% 30.27 in 10.0 mi South 9.2 mph - N/A   Mostly Cloudy
9:15 PM 46.4 °F 41.9 °F 39.2 °F 76% 30.27 in 10.0 mi South 9.2 mph - N/A   Scattered Clouds
9:35 PM 46.4 °F 41.5 °F 39.2 °F 76% 30.27 in 10.0 mi South 10.4 mph - N/A   Scattered Clouds
9:55 PM 46.4 °F 41.1 °F 39.2 °F 76% 30.27 in 10.0 mi South 11.5 mph - N/A   Scattered Clouds
10:15 PM 46.4 °F 41.9 °F 39.2 °F 76% 30.28 in 10.0 mi South 9.2 mph - N/A   Clear
10:35 PM 46.4 °F 41.9 °F 39.2 °F 76% 30.28 in 10.0 mi South 9.2 mph - N/A   Scattered Clouds
10:55 PM 50.0 °F - 39.2 °F 66% 30.28 in 10.0 mi South 10.4 mph - N/A   Overcast
11:15 PM 48.2 °F - 39.2 °F 71% 30.28 in 10.0 mi South 9.2 mph - N/A   Overcast
11:35 PM 48.2 °F - 39.2 °F 71% 30.27 in 10.0 mi South 9.2 mph - N/A   Overcast
11:55 PM 46.4 °F 41.9 °F 39.2 °F 76% 30.28 in 10.0 mi South 9.2 mph - N/A   Scattered Clouds